ORBCOMM FM119 [-]

Last updated on Fri Dec 29 2023 00:02:54 GMT+0000 (Coordinated Universal Time)

1 41180U 15081B 23361.69085839 .00000993 00000+0 26034-3 0 9990 2 41180 46.9984 210.5723 0001144 115.6583 244.4420 14.56157643427336
UTC large
Height (km)
Speed (km/s)
/
Latitude / Longitude
Inclination (degrees)
Orbital Period (minutes)
Azimuth
Elevation
Range (km)
Doppler Factor

Next 0 passes for location: London (51.5072 / 0.1276)

Sorry there are no passes over London.
ORBCOMM FM119 [-]